[ hide orbit diagram ]
For accurate long-term ephemerides, please instead use our Horizons system.This orbit viewer was implemented using two-body methods, and hence should not be used for determining accurate long-term trajectories (over several years or decades) or planetary encounter circumstances.
Orbital Elements at Epoch 2459200.5 (2020-Dec-17.0) TDB
Reference: JPL 26 (heliocentric ecliptic J2000)
Element | Value | Uncertainty (1-sigma) | Units |
e | .1191448633375062 | 4.772e-08 | |
a | 4.020489716629447 | 5.0287e-08 | au |
q | 3.541469018791783 | 2.1878e-07 | au |
i | 2.39611174858358 | 5.5892e-06 | deg |
node | 335.1223288818492 | 0.00011987 | deg |
peri | 317.6511754324855 | 0.00012238 | deg |
M | 16.30073654926694 | 2.4202e-05 | deg |
tp | 2459067.171931373815 (2020-Aug-05.67193137) | 0.00019762 | TDB |
period | 2944.535945376346 8.06 | 5.5244e-05 1.512e-07 | d yr |
n | .1222603516066053 | 2.2938e-09 | deg/d |
Q | 4.499510414467112 | 5.6278e-08 | au |
|
| | Orbit Determination Parameters
Additional Information
|
[ show covariance matrix ]
Physical Parameter Table
Parameter |
Symbol |
Value |
Units |
Sigma |
Reference |
Notes |
absolute magnitude |
H |
13.44 |
|
n/a |
E2021B10 |
|
diameter |
diameter |
12.057 |
km |
0.706 |
urn:nasa:pds:neowise_diameters_albedos::2.0[hildas] (http://adsabs.harvard.edu/abs/2012ApJ...744..197G) |
|
geometric albedo |
albedo |
0.064 |
|
0.015 |
urn:nasa:pds:neowise_diameters_albedos::2.0[hildas] (http://adsabs.harvard.edu/abs/2012ApJ...744..197G) |
|
|
58095 Oranienstein | Discovered 1973 Sept. 19 by C. J. van Houten and I. van Houten-Groeneveld on Palomar Schmidt plates taken by T. Gehrels. |
Oranienstein is a German baroque castle on the Lahn river near Diez. |
NOTE: some special characters may not display properly (any characters within {} are an attempt to place the proper accent above a character) |
Reference: 20060219/MPCPages.arc | Last Updated: 2010-06-03 |
|
[ show close-approach data ]
|